CZ-6A DEB

Satellite information

Favourite Embed

Satellite Type and Status

DEBRISIN ORBIT

Key statistics

Satellite CZ-6A DEB at a glance.

Uptime

969

Days in orbit

Revolutions

≈ 14.2

Per day

Orbit

SSO

Sun Synchronous Orbit

Inclination

98.9

Latest

Satellite identification and parameters

Extended collection of information and parameters for CZ-6A DEB.

Object identification

Identified? True

Debris? True

Object name: CZ-6A DEB

International designator: 2022-151P

Object number (NORAD): 54272

Object ID (CCSDS): 54272

Country: PEOPLES REPUBLIC OF CHINA (PRC)

Current information (Y/N): Y

RCS size: SMALL

Orbital parameters

Period: 101.298 minutes

Inclination: 98.8759 deg

SMA: 7198.246 km

Apoapsis: 841.921 km

Periapsis: 798.301 km

RAAN: 215.4069 deg

Eccentricy: 0.0030299

Argument of periapsis: 95.8952 deg

Mean anomaly: 264.568 deg

Mean motion: 14.21551954 rev/day

Mean motion (dot): 0.00000725 rev/day2

B* drag term: 0.00034991 1/REarth

Two-line elements (TLE)

Creation date: July 6, 2025, 6:05 p.m.

Reference frame: TEME

Reference center: EARTH

Epoch: July 6, 2025, 2:54 p.m. UTC

TLE line 0: 0 CZ-6A DEB

TLE line 1: 1 54272U 22151P 25187.62136407 .00000725 00000-0 34991-3 0 9996

TLE line 2: 2 54272 98.8759 215.4069 0030299 95.8952 264.5680 14.21551954137050

Live tracking on map

Real-time ground track for satellite CZ-6A DEB.

In-orbit conjunctions

A list of the most updated potential collisions computed for object CZ-6A DEB.

Target Orbit TCA Probability of collision Miss distance Type
CZ-6A DEB LEO 2025-04-27 17:30:20 0.0001033642 281.0 (m) DEBRIS
SCOUT A DEB SSO 2025-04-11 13:13:57 0.0001018796 191.0 (m) DEBRIS
BLITS SSO 2024-10-01 01:06:32 0.0001020313 593.0 (m) PAYLOAD

Associated space launch

Chinese satellite reported for atmospheric/ocean/environmental/spatial parameter research purposes, details TBD.

CZ-6A DEB was lifted into orbit during the mission ‘Long March 6A | Yunhai 3’, on board a Long March 6A space rocket.

The launch took place on Nov. 11, 2022, 10:52 p.m. from Launch Complex 9A.

For more information about the launch, click the button.

Launch to space Long March 6A | Yunhai 3
Long March 6A | Yunhai 3

Agency: N/A

Status: Launch Successful

Launch date: Nov. 11, 2022, 10:52 p.m. UTC

Rocket: Long March 6A

Launch pad: Launch Complex 9A

Location: Taiyuan Satellite Launch Center, People's Republic of China

...

Latest news about this satellite

There are no fresh news available about this satellite. Check back as we update our databases every day.


Newsletter sign-up

Weekly statistics, charts and insights to help you stay on top of the space industry.